Location: Newark
(40.2531°N, 0.7525°W)
Time: 11:49:55
(UTC+00:00)

Hubble Space Telescope - Visible Passes

Search period start: 20 March 2019 00:00
Search period end: 30 March 2019 00:00
Orbit: 537 x 540 km, 28.5° (Epoch: 19 March)

Date Brightness Start Highest point End Pass type
(mag) Time Alt. Az. Time Alt. Az. Time Alt. Az.
25 Mar 3.2 20:07:01 10° SSW 20:07:45 12° SSW 20:07:45 12° SSW visible
26 Mar 2.9 19:56:11 10° SSW 19:58:03 14° S 19:58:03 14° S visible
27 Mar 2.7 19:45:26 10° SSW 19:47:54 15° S 19:48:17 15° SSE visible
28 Mar 2.7 19:34:45 10° SW 19:37:17 16° S 19:38:30 14° SSE visible
29 Mar 2.8 19:24:08 10° SW 19:26:41 16° S 19:28:40 12° SSE visible
